Track NAVSTAR 17 (USA 49) now! NAVSTAR 17 (USA 49) is classified as:
1 20361U 89097A 19050.55171618 .00000001 00000-0 00000+0 0 9994 2 20361 54.4650 105.0517 0023651 279.5636 258.0022 1.89174291198742